[Iaude] MPEC L64: 2024 LF1 [a=1.57,e=0.41,i=2.7,H=27.5]

mpec at cfa.harvard.edu mpec at cfa.harvard.edu
Thu Jun 6 07:48:44 EDT 2024


M.P.E.C. 2024-L64                                  Issued 2024 June 6, 11:47 UT

     The Minor Planet Electronic Circulars contain information on unusual
         minor planets, routine data on comets and natural satellites,
         and occasional editorial announcements.  They are published
    on behalf of Division F of the International Astronomical Union by the
          Minor Planet Center, Smithsonian Astrophysical Observatory,
                          Cambridge, MA 02138, U.S.A.
			  
             Prepared using the Tamkin Foundation Computer Network

                              MPC at CFA.HARVARD.EDU
            URL https://www.minorplanetcenter.net/    ISSN 1523-6714

                                    2024 LF1                                    


Observations:
     K24L01F* C2024 06 05.35281615 30 36.940+02 46 34.61         20.79GVEL064V00
     K24L01F  C2024 06 05.35842715 30 47.725+02 45 31.21               VEL064V00
     K24L01F  C2024 06 05.36404215 30 58.442+02 44 28.10         21.08GVEL064V00
     K24L01F  C2024 06 05.36965015 31 09.001+02 43 26.36         20.69GVEL064V00
     K24L01F KC2024 06 05.39035115 31 47.871+02 39 23.67         20.4 GVEL064H01
     K24L01F  C2024 06 05.39605215 31 58.758+02 38 20.10         20.6 GVEL064H01
     K24L01F  C2024 06 05.40446915 32 14.866+02 36 46.64         20.4 GVEL064H01
     K24L01F  C2024 06 05.41528315 32 35.564+02 34 47.11         20.5 GVEL064H01
     K24L01F KC2024 06 05.42333715 32 51.200+02 33 26.50         20.68GVEL064I52
     K24L01F KC2024 06 05.42813315 33 00.380+02 32 33.30         20.38GVEL064I52
     K24L01F KC2024 06 05.43293715 33 09.540+02 31 40.30         20.17GVEL064I52
     K24L01F 2C2024 06 05.96530115 49 37.788+01 01 33.47         20.2 GVEL064J04
     K24L01F 2C2024 06 05.96867415 49 43.035+01 01 01.59         20.6 GVEL064J04
     K24L01F 2C2024 06 05.97358115 49 50.731+01 00 14.79         20.7 GVEL064J04
     K24L01F KC2024 06 06.12624515 54 05.48 +00 35 45.9          20.7 GVEL064H21
     K24L01F KC2024 06 06.12904315 54 09.70 +00 35 20.7          21.3 GVEL064H21
     K24L01F KC2024 06 06.13184215 54 13.92 +00 34 55.5          21.2 GVEL064H21
     K24L01F KC2024 06 06.13464015 54 18.15 +00 34 29.7          21.0 GVEL064H21
     K24L01F KC2024 06 06.21057815 56 17.815+00 23 40.49         20.66GVEL064I52
     K24L01F KC2024 06 06.21168015 56 19.446+00 23 31.20         20.68GVEL064I52
     K24L01F KC2024 06 06.21432715 56 23.305+00 23 07.33         20.77GVEL064I52
     K24L01F KC2024 06 06.21543415 56 24.918+00 22 57.43         20.71GVEL064I52
     K24L01F !C2024 06 06.22154 15 56 35.74 +00 21 54.4          20.5 GVEL064673
     K24L01F !C2024 06 06.22406 15 56 39.38 +00 21 31.9                VEL064673

Observer details:
673 Table Mountain Observatory, Wrightwood.  Observer J. Pittichova.  1.0-m
    f/15 reflector + CCD.
H01 Magdalena Ridge Observatory, Socorro.  Observers W. H. Ryan, E. V. Ryan.
    Measurer W. H. Ryan.  2.4-m f/8.9 Ritchey-Chretien + CCD.
H21 Astronomical Research Observatory, Westfield.  Observer R. Holmes.
    Measurers T. Linder, R. Holmes, L. Horn.  0.76-m f/3.0 astrograph + CCD.
I52 Steward Observatory, Mt. Lemmon Station.  Observers T. Beuden, D. Rankin.
    Measurers T. Beuden, V. F. Carvajal, D. Fay, J. B. Fazekas, D. C. Fuls, A.
    R. Gibbs, A. D. Grauer, H. Groeller, J. K. Hogan, R. A. Kowalski, S. M.
    Larson, G. J. Leonard, D. Rankin, R. L. Seaman, F. C. Shelly, K. W.
    Wierzchos.  1.0-m prime focus + CCD.
J04 ESA Optical Ground Station, Tenerife.  Observers D. Abreu, M. Micheli, F.
    Ocana, L. Conversi.  Measurers M. Micheli, R. Kresken, F. Ocana.
    1.0-m f/4.4 reflector + CCD.
V00 Kitt Peak-Bok.  Observer R. A. Mastaler.  Measurers M. J. Brucker, C. E.
    Woodward, T. Beuden, V. F. Carvajal, D. Fay, J. B. Fazekas, D. C. Fuls, A.
    R. Gibbs, H. Groeller, J. K. Hogan, R. A. Kowalski, S. M. Larson, C.
    Lejoly, G. J. Leonard, R. A. Mastaler, R. S. McMillan, D. Rankin, R. L.
    Seaman, F. C. Shelly, K. W. Wierzchos.  2.25-m reflector + 4x4K mosaic
    CCD.

Orbital elements:
2024 LF1                                                 Earth MOID = 0.0043 AU
Epoch 2024 Mar. 31.0 TT = JDT 2460400.5                 Veres                   
M 347.26936              (2000.0)            P               Q                  
n   0.50166217     Peri.  320.90598     -0.90791893     +0.41697380             
a   1.5686588      Node   243.78725     -0.37166074     -0.84789450             
e   0.4071200      Incl.    2.72259     -0.19378213     -0.32742597             
P   1.96           H   27.50          G   0.15           U   8                  
Residuals in seconds of arc
240605 V00 (0.5-  0.1+)   240605 I52  0.3-  0.2-    240606 H21  0.1-  0.2+
240605 V00  1.0+  0.3-    240605 I52  0.1+  0.5-    240606 H21  0.0   0.2-
240605 V00 (1.4+  0.5-)   240605 I52  0.0   0.6-    240606 I52  0.1-  0.1-
240605 V00  0.4-  0.5+    240605 J04  0.1+  0.0     240606 I52  0.2+  0.4+
240605 H01  0.4+  0.2+    240605 J04  0.3-  0.1+    240606 I52  0.0   0.0
240605 H01  0.1+  0.0     240605 J04  0.3+  0.2-    240606 I52  0.0   0.1-
240605 H01  0.1+  0.0     240606 H21  0.1+  0.1-    240606 673  0.7+  0.0
240605 H01  0.1+  0.2+    240606 H21  0.0   0.0     240606 673  0.0   0.3-

Ephemeris:
2024 LF1                 a,e,i = 1.57, 0.41, 3                   q = 0.9300
Date    TT    R. A. (2000) Decl.     Delta      r    Elong.  Phase     V
2024 05 07    06 50 02.2 +15 14 49   0.1366  0.9394    55.9   117.2    27.7
...
2024 05 22    07 40 03.6 +17 04 32   0.06018 0.9772    53.0   124.2    26.5
...
2024 05 30    09 51 44.3 +20 27 29   0.02433 1.0075    74.5   104.2    23.3
...
2024 06 05    15 18 23.7 +03 58 30   0.02348 1.0339   144.9    34.4    20.9
2024 06 06    15 50 30.6 +00 58 42   0.02705 1.0386   151.4    27.9    21.0
2024 06 07    16 14 42.2 -01 18 42   0.03110 1.0433   155.8    23.5    21.2
...
2024 06 13    17 22 25.1 -07 41 30   0.05969 1.0732   164.5    14.7    22.4
...
2024 06 21    17 50 18.8 -10 28 16   0.1023  1.1161   166.9    11.9    23.5
...
2024 07 06    18 08 03.6 -12 52 24   0.1927  1.2031   164.0    13.5    25.1

M. P. C. Staff               (C) Copyright 2024 MPC           M.P.E.C. 2024-L64





More information about the Iaude mailing list